Regional Weather Roundup
Issued by NWS Albany, NY

Home | Current Version | Previous Version | Text Only | Print | Product List | Glossary On
Versions: 1 2 3 4 5 6 7 8 9 10 11 12 13 14 15 16 17 18 19 20 21 22 23 24 25 26 27
000
ASUS41 KALY 042010
RWRALY

NEW YORK STATE HOURLY WEATHER ROUNDUP
NATIONAL WEATHER SERVICE ALBANY NY
400 PM EDT WED MAY 04 2016

NOTE: "FAIR" INDICATES FEW OR NO CLOUDS BELOW 12,000 FEET WITH NO
SIGNIFICANT WEATHER AND/OR NO OBSTRUCTIONS TO VISIBILITY.

NYZ032-033-038>043-046>054-057>066-NYZ062>081-082-084-042100-
EAST


CITY           SKY/WX    TMP DP  RH WIND       PRES   REMARKS
ALBANY         LGT RAIN  50  46  86 CALM      29.79F FOG
GLENS FALLS    LGT RAIN  50  46  86 SE3       29.81R FOG
POUGHKEEPSIE   CLOUDY    51  47  86 N6        29.76R FOG
MONTGOMERY     LGT RAIN  50  48  93 NE10      29.74F FOG
WHITE PLAINS   LGT RAIN  49  47  93 E6        29.72F FOG
ISLIP          TSTM      49  44  83 NE13G18   29.72F
NEW YORK CITY  LGT RAIN  51  47  86 E13       29.74S
CENTRAL PARK   CLOUDY    51  43  74 E13G21    29.76S
$$

NYZ005>009-017-018-044>046-055-056-042100-
CENTRAL


CITY           SKY/WX    TMP DP  RH WIND       PRES   REMARKS
FULTON         CLOUDY    62  47  57 N12       29.69F
SYRACUSE       LGT RAIN  56  52  86 NE5       29.69S
ROME           CLOUDY    55  48  77 E15G21    29.73F
ELMIRA         LGT RAIN  55  49  80 E3        29.67F
BINGHAMTON     LGT RAIN  50  47  89 SE9       29.69F
MONTICELLO     CLOUDY    46  45  93 E8        29.74F
$$

NYZ026>034-041>043-087-042100-
NORTH


CITY           SKY/WX    TMP DP  RH WIND       PRES   REMARKS
WATERTOWN      CLOUDY    59  46  62 NE8       29.71F
FORT DRUM      NOT AVBL
MASSENA        LGT RAIN  54  47  77 NE14      29.78F
SARANAC LAKE   CLOUDY    52  45  77 CALM      29.74S
PLATTSBURGH    CLOUDY    56  44  64 S9        29.79F
$$

NYZ001>004-010>016-019>021-085-042100-
WEST


CITY           SKY/WX    TMP DP  RH WIND       PRES   REMARKS
NIAGARA FALLS  PTSUNNY   61  40  45 NE14      29.66F
BUFFALO        PTSUNNY   61  42  49 NE12G17   29.66F
DUNKIRK        MOSUNNY   59  42  53 N9        29.65F
JAMESTOWN      MOSUNNY   57  36  44 NE3       29.64S
WELLSVILLE     CLOUDY    57  40  52 E5        29.66F
ROCHESTER      PTSUNNY   61  46  57 NE10      29.68F
PENN YAN       CLOUDY    60  42  51 E6        29.67F
$$

             KEY
       WCI = WIND CHILL INDEX
       VSB = VISIBILITY
       HX  = HEAT INDEX
$$




USA.gov is the U.S. government's official web portal to all federal, state and local government web resources and services.